TimeEST,TemperatureF,Dew PointF,Humidity,Sea Level PressureIn,VisibilityMPH,Wind Direction,Wind SpeedMPH,Gust SpeedMPH,PrecipitationIn,Events,Conditions,WindDirDegrees,DateUTC
12:15 AM,30.9,28.9,92,29.96,2.0,Calm,Calm,-,0.00,Snow,Light Snow,0,2013-11-10 05:15:00
12:32 AM,30.9,28.9,92,29.95,3.0,Calm,Calm,-,0.00,Snow,Light Snow,0,2013-11-10 05:32:00
12:40 AM,30.9,28.9,92,29.95,2.5,Calm,Calm,-,0.00,Snow,Light Snow,0,2013-11-10 05:40:00
12:48 AM,30.2,28.4,93,29.94,3.0,Calm,Calm,-,0.00,Snow,Light Snow,0,2013-11-10 05:48:00
12:52 AM,30.9,28.9,92,29.98,3.0,Calm,Calm,-,0.00,Snow,Light Snow,0,2013-11-10 05:52:00
1:02 AM,30.9,28.9,92,29.93,1.8,Calm,Calm,-,0.00,Snow,Light Snow,0,2013-11-10 06:02:00
1:18 AM,30.9,28.9,92,29.92,1.8,Calm,Calm,-,0.01,Snow,Light Snow,0,2013-11-10 06:18:00
1:24 AM,30.9,28.9,92,29.92,2.0,Calm,Calm,-,0.01,Snow,Light Snow,0,2013-11-10 06:24:00
1:52 AM,30.9,28.9,92,29.95,2.0,Calm,Calm,-,0.01,Snow,Light Snow,0,2013-11-10 06:52:00
2:06 AM,30.9,28.9,92,29.89,4.0,Calm,Calm,-,0.00,Snow,Light Snow,0,2013-11-10 07:06:00
2:52 AM,30.9,28.9,92,29.91,9.0,Calm,Calm,-,0.00,,Overcast,0,2013-11-10 07:52:00
3:52 AM,30.9,28.9,92,29.89,8.0,Calm,Calm,-,0.00,Snow,Light Snow,0,2013-11-10 08:52:00
4:17 AM,30.9,28.9,92,29.84,2.5,Calm,Calm,-,0.00,Snow,Light Snow,0,2013-11-10 09:17:00
4:30 AM,32.0,30.0,92,29.84,4.0,Calm,Calm,-,0.00,Snow,Light Snow,0,2013-11-10 09:30:00
4:52 AM,32.0,30.0,92,29.88,10.0,Calm,Calm,-,0.00,,Overcast,0,2013-11-10 09:52:00
5:52 AM,32.0,30.0,92,29.85,8.0,Calm,Calm,-,N/A,,Overcast,0,2013-11-10 10:52:00
6:52 AM,33.1,30.9,92,29.84,1.8,Calm,Calm,-,0.00,Snow,Light Snow,0,2013-11-10 11:52:00
7:01 AM,32.0,30.0,92,29.80,1.0,North,3.5,-,0.01,Snow,Light Snow,350,2013-11-10 12:01:00
7:16 AM,32.0,30.9,96,29.79,1.5,Calm,Calm,-,0.01,Snow,Light Snow,0,2013-11-10 12:16:00
7:39 AM,33.1,30.9,92,29.78,2.0,Calm,Calm,-,0.01,Snow,Light Snow,0,2013-11-10 12:39:00
7:52 AM,33.1,30.9,92,29.83,1.8,Calm,Calm,-,0.01,Snow,Light Snow,0,2013-11-10 12:52:00
8:01 AM,33.1,32.0,96,29.78,0.8,Calm,Calm,-,0.01,Snow,Light Snow,0,2013-11-10 13:01:00
8:16 AM,33.1,32.0,96,29.78,0.5,Calm,Calm,-,0.02,Fog-Snow,Snow,0,2013-11-10 13:16:00
8:22 AM,33.1,32.0,96,29.78,1.0,Calm,Calm,-,0.02,Snow,Light Snow,0,2013-11-10 13:22:00
8:27 AM,33.1,32.0,96,29.78,2.0,Calm,Calm,-,0.02,Snow,Light Snow,0,2013-11-10 13:27:00
8:37 AM,33.1,32.0,96,29.77,4.0,Calm,Calm,-,0.02,Snow,Light Snow,0,2013-11-10 13:37:00
8:45 AM,33.1,32.0,96,29.77,4.0,Calm,Calm,-,0.02,Snow,Light Snow,0,2013-11-10 13:45:00
8:52 AM,33.1,32.0,96,29.81,5.0,Calm,Calm,-,0.02,,Overcast,0,2013-11-10 13:52:00
9:05 AM,33.1,32.0,96,29.77,7.0,Calm,Calm,-,0.00,,Overcast,0,2013-11-10 14:05:00
9:12 AM,33.1,32.0,96,29.76,7.0,Calm,Calm,-,0.00,,Overcast,0,2013-11-10 14:12:00
9:24 AM,33.1,32.0,96,29.76,4.0,Calm,Calm,-,0.00,Snow,Light Snow,0,2013-11-10 14:24:00
9:52 AM,34.0,32.0,92,29.79,10.0,Calm,Calm,-,0.00,,Overcast,0,2013-11-10 14:52:00
10:44 AM,35.1,32.0,89,29.73,10.0,Calm,Calm,-,N/A,,Overcast,0,2013-11-10 15:44:00
10:52 AM,35.1,32.0,89,29.77,10.0,Calm,Calm,-,N/A,,Overcast,0,2013-11-10 15:52:00
11:18 AM,36.0,33.1,89,29.71,10.0,North,3.5,-,N/A,,Overcast,10,2013-11-10 16:18:00
11:35 AM,36.0,33.1,89,29.70,10.0,Calm,Calm,-,N/A,,Overcast,0,2013-11-10 16:35:00
11:52 AM,37.0,34.0,89,29.73,10.0,Calm,Calm,-,N/A,,Overcast,0,2013-11-10 16:52:00
12:52 PM,39.9,36.0,86,29.70,10.0,Calm,Calm,-,N/A,,Mostly Cloudy,0,2013-11-10 17:52:00
1:24 PM,39.9,37.0,89,29.66,10.0,SE,3.5,-,N/A,,Overcast,130,2013-11-10 18:24:00
1:39 PM,41.0,37.0,86,29.66,10.0,Calm,Calm,-,N/A,,Overcast,0,2013-11-10 18:39:00
1:52 PM,42.1,36.0,79,29.69,10.0,SW,6.9,-,N/A,,Overcast,230,2013-11-10 18:52:00
2:52 PM,42.1,36.0,79,29.70,10.0,Calm,Calm,-,N/A,,Mostly Cloudy,0,2013-11-10 19:52:00
3:52 PM,41.0,36.0,82,29.70,10.0,Calm,Calm,-,N/A,,Mostly Cloudy,0,2013-11-10 20:52:00
4:52 PM,41.0,35.1,79,29.70,10.0,Calm,Calm,-,0.00,,Overcast,0,2013-11-10 21:52:00
5:52 PM,41.0,35.1,79,29.71,10.0,Variable,3.5,-,0.00,Rain,Light Rain,0,2013-11-10 22:52:00
6:33 PM,39.9,35.1,83,29.68,10.0,West,3.5,-,0.01,Rain,Light Rain,260,2013-11-10 23:33:00
6:52 PM,39.9,36.0,86,29.72,10.0,Calm,Calm,-,0.01,Rain,Light Rain,0,2013-11-10 23:52:00
7:52 PM,39.9,36.0,86,29.72,10.0,Variable,3.5,-,0.00,,Overcast,0,2013-11-11 00:52:00
8:52 PM,39.0,36.0,89,29.73,10.0,Calm,Calm,-,0.00,Rain,Light Rain,0,2013-11-11 01:52:00
9:52 PM,39.0,36.0,89,29.73,10.0,Calm,Calm,-,0.01,Rain,Light Rain,0,2013-11-11 02:52:00
10:17 PM,39.0,35.1,86,29.70,10.0,West,4.6,-,0.00,Rain,Light Rain,280,2013-11-11 03:17:00
10:47 PM,37.4,35.6,93,29.71,10.0,Variable,4.6,-,0.00,Rain,Light Rain,0,2013-11-11 03:47:00
10:52 PM,37.9,35.1,89,29.75,10.0,Variable,3.5,-,0.00,,Overcast,0,2013-11-11 03:52:00
11:52 PM,37.0,34.0,89,29.78,9.0,WNW,6.9,-,0.01,Rain,Light Rain,300,2013-11-11 04:52:00